Location: Brabourne
(51.1333°N, 1.0000°E)
Time: 21:51:17
(UTC+00:00)

Cosmos 1437 - Pass Details

Date: 20 June 2021
Orbit: 333 x 334 km, 81.1° (Epoch: 01 August)

Event Time Altitude Azimuth Distance (km) Brightness Sun altitude
Rises 01:49:34 0° 343° (NNW) 2,149 7.1 -11.5°
Reaches altitude 10° 01:51:33 10° 338° (NNW) 1,306 5.9 -11.3°
Maximum altitude 01:54:18 51° 262° (W) 442 2.6 -11.1°
Enters shadow 01:56:08 18° 190° (S) 928 3.9 -11.0°
